Regional Weather Roundup
Issued by NWS

Home | Current Version | Previous Version | Text Only | Print | Product List | Glossary On
Versions: 1 2 3 4 5 6 7 8 9 10 11 12 13 14 15 16 17 18 19 20 21 22 23 24 25 26 27 28 29 30 31 32 33 34 35 36 37 38 39 40 41 42 43 44 45 46 47 48 49 50
000
ASUS43 KDTX 220110
RWRMI
MICHIGAN HOURLY REGIONAL WEATHER ROUNDUP
NATIONAL WEATHER SERVICE DETROIT/PONTIAC MI
900 PM EDT SAT OCT 21 2017

NOTE: "FAIR" INDICATES FEW OR NO CLOUDS BELOW 12,000 FEET WITH NO
SIGNIFICANT WEATHER AND/OR OBSTRUCTION TO VISIBILITY.

MIZ047>049-052>055-059>063-066>070-074>076-081>083-220200-
SOUTHEAST LOWER MICHIGAN

CITY           SKY/WX    TMP DP  RH WIND       PRES   REMARKS
ADRIAN         PTCLDY    61  49  64 S5        30.17S
ALMA           PTCLDY    63  45  51 SW7       30.11S
ANN ARBOR      PTCLDY    62  54  74 CALM      30.16S
BAD AXE        PTCLDY    64  52  65 S12G18    30.15S
CARO           PTCLDY    65  52  64 S8        30.14R
DETROIT CITY   PTCLDY    64  52  64 SE8       30.17F
DETROIT        MOCLDY    65  54  67 SE9       30.17F
FLINT          CLOUDY    61  52  72 S8        30.15R
GROSSE ILE     PTCLDY    67  55  64 S14G21    30.16F
HILLSDALE      CLOUDY    64  45  48 S9        30.15S
HOWELL         PTCLDY    63  54  72 SE7       30.15S

CITY           SKY/WX    TMP DP  RH WIND       PRES   REMARKS
JACKSON        MOCLDY    66  49  54 SE7       30.14F
LAMBERTVILLE   MOCLDY    65  49  56 S3        30.17S
LANSING        PTCLDY    64  47  53 S7        30.13S
LAPEER         FAIR      64  52  64 S7        30.16S
MASON          CLOUDY    64  51  61 SE6       30.14S
MONROE         PTCLDY    65  53  65 S7        30.16S
MT. CLEMENS    PTCLDY    57  55  92 CALM      30.15F
PONTIAC        MOCLDY    63  53  70 SE5       30.16S
PORT HOPE        N/A     66  52  60 S7        30.12S
PORT HURON     MOCLDY    64  50  59 S7        30.18F
TRI CITIES     PTCLDY    68  51  54 S10       30.12S
MIDLAND        FAIR      68  48  48 S7        30.10S
TROY           PTCLDY    65  51  60 SE5       30.18F
SAGINAW HB     MOCLDY    64  52  63 S10       30.12S
$$
MIZ043>046-050>051-056>058-064>065-071>073-077>080-220200-
SOUTHWEST LOWER MICHIGAN

CITY           SKY/WX    TMP DP  RH WIND       PRES   REMARKS
BATTLE CREEK   MOCLDY    67  42  40 SE5       30.13S
BENTON HARBOR  CLEAR     68  53  58 SE10      30.06S
BIG RAPIDS     CLOUDY    65  43  45 SE3       30.06F
COLDWATER      CLOUDY    65  41  42 S6        30.14R
FREMONT        FAIR      65  48  53 SE5       30.05S
HOLLAND        CLOUDY    67  52  58 S10       30.07S
GRAND RAPIDS   MOCLDY    66  47  50 S9        30.09R
IONIA          FAIR      64  43  47 SE9       30.10S
KALAMAZOO      CLOUDY    67  47  48 S8        30.12R
LUDINGTON      CLEAR     67  51  56 S9G18     30.01R
MARSHALL       CLOUDY    65  45  48 SE3       30.13R
MOUNT PLEASANT PTCLDY    67  43  41 S5        30.09S
MUSKEGON       CLOUDY    69  51  52 SE10      30.05S
SOUTH HAVEN    CLOUDY    70  53  54 SE7       30.07S
$$
MIZ016>042-220200-
NORTHERN LOWER MICHIGAN

CITY           SKY/WX    TMP DP  RH WIND       PRES   REMARKS
ALPENA         CLOUDY    63  50  62 S10       30.07F
BEAVER ISLAND  CLEAR     68  46  45 S8G18     29.98F
BELLAIRE       CLEAR     58  45  61 CALM      30.02F
CADILLAC       PTCLDY    66  40  39 S9        30.06S
CHARLEVOIX     CLEAR     64  43  46 SE6       30.03F
FRANKFORT      PTCLDY    69  52  54 SE12G18   30.00S
GAYLORD        CLEAR     62  40  44 S9        30.06S
GRAYLING       PTCLDY    64  41  43 S7        30.07F
HARBOR SPRINGS CLEAR     65  39  38 CALM      30.02S
HOUGHTON LAKE  PTCLDY    64  42  44 S6        30.09S
MANISTEE       CLEAR     65  52  62 SE7       30.01R
OSCODA         CLOUDY    67  49  52 S13G18    30.10S
PELLSTON       CLEAR     63  42  46 S6        30.02S
ROGERS CITY    PTCLDY    64  47  54 S6        30.05F
TRAVERSE CITY  PTCLDY    68  44  42 VRB5      30.00S
$$
MIZ007>008-015-220200-
EASTERN UPPER MICHIGAN

CITY           SKY/WX    TMP DP  RH WIND       PRES   REMARKS
KINROSS        CLEAR     54  47  77 SE8       30.01S
MACKINAC ISLAN CLEAR     66  41  39 S10G17    30.01F
NEWBERRY       CLEAR     56  52  85 S8        29.97S
S. S. MARIE    CLEAR     58  51  78 E5        30.01R
MUNISING         N/A     63  56  78 S16G26    29.89R
$$
MIZ004>006-011>014-085-220200-
CENTRAL UPPER MICHIGAN

CITY           SKY/WX    TMP DP  RH WIND       PRES   REMARKS
MANISTIQUE     PTCLDY    60  55  81 S8        29.97S
ESCANABA       CLEAR     60  56  86 S10       29.93S
SAWYER-GWINN   CLEAR     59  52  77 S18       29.90R
$$
MIZ001>003-009>011-084-220200-
WESTERN UPPER MICHIGAN

CITY           SKY/WX    TMP DP  RH WIND       PRES   REMARKS
IRON MOUNTAIN  CLEAR     61  52  72 SE7       29.89R
HOUGHTON       MOCLDY    68  56  65 S6        29.80R
COPPER HARBOR    N/A     63  53  70 VRB7G20   29.80R
IRONWOOD       MOCLDY    67  58  72 S14G21    29.76F
$$

ABBREVIATIONS USED IN REMARKS
   TC - TEMPERATURE IN CELSIUS
  WCI - WIND CHILL INDEX
   HX - HEAT INDEX
  VSB - VISIBILITY





USA.gov is the U.S. government's official web portal to all federal, state and local government web resources and services.